Вернуться в каталог

DELTA 1 R/B(2) *

АктивенHEO
NORAD 11792·ROCKET BODY·🇺🇸 United States

Запущен Oct 26, 1966 с Cape Canaveral Space Force Station

Loading…

Ближайшие Пролёты (ближайшие 24 часа)

TLE

СвежийSource: Space-Track

Эпоха: Sep 12, 2026, 09:28 UTC

1 11792U 66096C   26255.39452123  .00001031  00000-0  15008-2 0  9997
2 11792  17.8016 354.4781 6053170  33.4663 353.0692  3.84787574434747

Отслеживайте DELTA 1 R/B(2) * в реальном времени с AllMySat

Download on the App Store